Regional Weather Roundup
Issued by NWS Albany, NY

Home | Current Version | Previous Version | Text Only | Print | Product List | Glossary On
Versions: 1 2 3 4 5 6 7 8 9 10 11 12 13 14 15 16 17 18 19 20 21 22 23 24 25 26 27 28 29 30 31 32 33 34 35 36 37 38 39 40 41 42 43 44 45 46 47 48 49 50
738
ASUS41 KALY 231310
RWRALY

NEW YORK STATE HOURLY WEATHER ROUNDUP
NATIONAL WEATHER SERVICE ALBANY NY
900 AM EDT SUN APR 23 2017

NOTE: "FAIR" INDICATES FEW OR NO CLOUDS BELOW 12,000 FEET WITH NO
SIGNIFICANT WEATHER AND/OR NO OBSTRUCTIONS TO VISIBILITY.

NYZ032-033-038>043-046>054-057>066-NYZ062>081-082-084-231400-
EAST


CITY           SKY/WX    TMP DP  RH WIND       PRES   REMARKS
ALBANY         MOSUNNY   49  37  63 N3        30.13S
GLENS FALLS    SUNNY     47  36  65 CALM      30.12S
POUGHKEEPSIE   SUNNY     48  36  63 CALM      30.13R
NEWBURGH       SUNNY     46  39  76 CALM      30.14R
MONTGOMERY     SUNNY     49  38  65 CALM      30.12R
WHITE PLAINS   SUNNY     50  34  54 NE10      30.11R
ISLIP          MOSUNNY   51  38  60 NE10      30.12R
NEW YORK CITY  MOSUNNY   52  36  54 NE7       30.13R
CENTRAL PARK   SUNNY     51  36  56 VRB7      30.15R
$$

NYZ005>009-017-018-044>046-055-056-231400-
CENTRAL


CITY           SKY/WX    TMP DP  RH WIND       PRES   REMARKS
FULTON         SUNNY     47  39  74 SW5       30.12S
SYRACUSE       MOSUNNY   46  38  73 VRB6      30.13S
ROME           SUNNY     41  36  82 SE3       30.15S
ELMIRA         CLOUDY    36  35  96 CALM      30.15R FOG
BINGHAMTON     SUNNY     42  35  76 W3        30.12R
MONTICELLO     SUNNY     45  36  70 CALM      30.13R
$$

NYZ026>034-041>043-087-231400-
NORTH


CITY           SKY/WX    TMP DP  RH WIND       PRES   REMARKS
WATERTOWN      SUNNY     48  40  73 S7        30.11S
FORT DRUM      NOT AVBL
OGDENSBURG     FAIR      48  42  80 S7        30.09S
MASSENA        SUNNY     46  38  73 SW9       30.10S
SARANAC LAKE   SUNNY     40  36  86 SW7       30.06S
PLATTSBURGH    SUNNY     47  36  65 E6        30.09S
$$

NYZ001>004-010>016-019>021-085-231400-
WEST


CITY           SKY/WX    TMP DP  RH WIND       PRES   REMARKS
NIAGARA FALLS  SUNNY     49  39  68 SW8       30.12S
BUFFALO        MOSUNNY   46  36  68 SW10      30.13S
DUNKIRK        SUNNY     49  37  63 SW6       30.14F
JAMESTOWN      SUNNY     39  34  81 S5        30.13S
WELLSVILLE     SUNNY     45  34  65 CALM      30.14R
ROCHESTER      SUNNY     47  37  68 SW9       30.13S
PENN YAN       SUNNY     45  35  68 SW8       30.13F
$$

             KEY
       WCI = WIND CHILL INDEX
       VSB = VISIBILITY
       HX  = HEAT INDEX
$$




USA.gov is the U.S. government's official web portal to all federal, state and local government web resources and services.